This is the latest recevied weather packets stored in our database for station/object EA6AMI-5. If no packets are shown the sender has not sent any weather packets the latest 10 day(s).
| Time | Temp. | Humidity | Pressure | Rain* | Wind** | Luminosity | Snow |
|---|---|---|---|---|---|---|---|
| 1777717623 | 21.67° C | 55% | 1022.4 hPa | 0 mm | - | 646 W/m² | - |
| 1777717083 | 21.67° C | 56% | 1022.7 hPa | 0 mm | - | 847 W/m² | - |
| 1777716543 | 21.67° C | 56% | 1022.6 hPa | 0 mm | - | 371 W/m² | - |
| 1777716003 | 21.67° C | 56% | 1022.6 hPa | 0 mm | - | 692 W/m² | - |
| 1777715643 | 21.11° C | 58% | 1022.7 hPa | 0 mm | - | 766 W/m² | - |
| 1777715103 | 20.56° C | 60% | 1022.6 hPa | 0 mm | - | 757 W/m² | - |
| 1777714563 | 20.56° C | 59% | 1022.9 hPa | 0 mm | - | 726 W/m² | - |
| 1777714023 | 20.56° C | 61% | 1022.9 hPa | 0 mm | - | 323 W/m² | - |
| 1777713483 | 20.56° C | 60% | 1022.8 hPa | 0 mm | - | 639 W/m² | - |
| 1777712943 | 19.44° C | 61% | 1022.9 hPa | 0 mm | - | 603 W/m² | - |
| 1777712403 | 20° C | 61% | 1022.9 hPa | 0 mm | - | 545 W/m² | - |
| 1777712043 | 19.44° C | 63% | 1023 hPa | 0 mm | - | 592 W/m² | - |
| 1777711503 | 19.44° C | 64% | 1023 hPa | 0 mm | - | 492 W/m² | - |
| 1777710963 | 18.89° C | 66% | 1022.9 hPa | 0 mm | - | 411 W/m² | - |
| 1777710423 | 17.78° C | 69% | 1022.8 hPa | 0 mm | - | 525 W/m² | - |
| 1777709883 | 18.33° C | 68% | 1022.9 hPa | 0 mm | - | 283 W/m² | - |
| 1777709343 | 17.78° C | 70% | 1022.9 hPa | 0 mm | - | 397 W/m² | - |
| 1777708803 | 18.33° C | 72% | 1023 hPa | 0 mm | - | 242 W/m² | - |
| 1777708443 | 18.33° C | 73% | 1023.1 hPa | 0 mm | - | 274 W/m² | - |
| 1777707904 | 17.78° C | 75% | 1023.1 hPa | 0 mm | - | 238 W/m² | - |
| 1777707363 | 17.22° C | 78% | 1023.1 hPa | 0 mm | - | 301 W/m² | - |
| 1777706824 | 17.22° C | 79% | 1023 hPa | 0 mm | - | 165 W/m² | - |
| 1777706283 | 17.22° C | 82% | 1023.3 hPa | 0 mm | - | 190 W/m² | - |
| 1777705743 | 16.67° C | 83% | 1023 hPa | 0 mm | - | 163 W/m² | - |
| 1777705203 | 16.67° C | 84% | 1023.1 hPa | 0 mm | - | 115 W/m² | - |
* Rain latest hour (hover to see other rain measurements)
** Current wind speed in m/s (hover to see current wind gust speed)